Cancun, Mexico

7:18 PM on July 21, 2018 (GMT +0000)
Cancun International

Weather History for MMUN - April, 2018

Change the Weather History Date:

Tuesday, April 17, 2018

  Actual Average Record
Temperature  
Mean Temperature 70 °F -  
Max Temperature 78 °F 86 °F 91 °F (1999)
Min Temperature 62 °F 70 °F 60 °F (2003)
Cooling Degree Days 5    
Growing Degree Days 20 (Base 50)    
Moisture  
Dew Point 60 °F    
Average Humidity 68    
Maximum Humidity 94    
Minimum Humidity 54    
Precipitation  
Precipitation 0.00 in - - ()
Sea Level Pressure  
Sea Level Pressure 30.09 in    
Wind  
Wind Speed 5 mph ()    
Max Wind Speed 13 mph    
Max Gust Speed -    
Visibility 7.0 miles    
Events      
Averages and records for this station are not official NWS values.
T = Trace of Precipitation, MM = Missing Value Source: Averaged Metar Reports

Daily Weather History Graph

Daily Weather History Graph

Search for Another Location

Airport or City:

Astronomy

Apr. 17, 2018 Rise Set
Actual Time 6:26 AM EST 7:07 PM EST
Civil Twilight 6:04 AM EST 7:30 PM EST
Nautical Twilight 5:37 AM EST 7:56 PM EST
Astronomical Twilight 5:10 AM EST 8:23 PM EST
Moon 7:48 AM EST (4/17) 8:56 PM EST (4/17)
Length of Visible Light 13h 25m
Length of Day
12h 40m
Waxing Crescent, 3% of the Moon is Illuminated
Apr 17
Waxing Crescent
Apr 22
First Quarter
Apr 29
Full
May 7
Last Quarter
May 15
New

Hourly Weather History & Observations

Time (EST) Temp. Dew Point Humidity Pressure Visibility Wind Dir Wind Speed Gust Speed Precip Events Conditions
12:45 AM 64.4 °F 60.8 °F 88% 30.15 in 7.0 mi WNW 5.8 mph - N/A   Partly Cloudy
1:45 AM 64.4 °F 60.8 °F 88% 30.13 in 7.0 mi NW 4.6 mph - N/A   Mostly Cloudy
2:45 AM 62.6 °F 60.8 °F 94% 30.12 in 7.0 mi NW 4.6 mph - N/A   Partly Cloudy
3:45 AM 62.6 °F 60.8 °F 94% 30.11 in 7.0 mi NW 3.5 mph - N/A   Mostly Cloudy
4:45 AM 64.4 °F 60.8 °F 88% 30.09 in 7.0 mi NNW 3.5 mph - N/A   Scattered Clouds
6:45 AM 62.6 °F 59.0 °F 88% 30.12 in 7.0 mi NW 4.6 mph - N/A   Scattered Clouds
7:48 AM 69.8 °F 60.8 °F 73% 30.12 in 7.0 mi NW 2.3 mph - N/A   Mostly Cloudy
8:50 AM 75.2 °F 60.8 °F 61% 30.13 in 7.0 mi ENE 4.6 mph - N/A   Mostly Cloudy
9:49 AM 77.0 °F 59.0 °F 54% 30.15 in 7.0 mi ESE 9.2 mph - N/A   Mostly Cloudy
10:43 AM 77.0 °F 60.8 °F 57% 30.15 in 7.0 mi NE 5.8 mph - N/A   Mostly Cloudy
11:43 AM 77.0 °F 59.0 °F 54% 30.13 in 7.0 mi NE 8.1 mph - N/A   Scattered Clouds
12:44 PM 78.8 °F 60.8 °F 54% 30.11 in 7.0 mi East 11.5 mph - N/A   Mostly Cloudy
1:45 PM 78.8 °F 60.8 °F 54% 30.07 in 7.0 mi ENE 9.2 mph - N/A   Scattered Clouds
2:46 PM 78.8 °F 60.8 °F 54% 30.05 in 7.0 mi NE 6.9 mph - N/A   Partly Cloudy
3:44 PM 78.8 °F 60.8 °F 54% 30.05 in 7.0 mi NNE 8.1 mph - N/A   Scattered Clouds
4:49 PM 77.0 °F 59.0 °F 54% 30.03 in 7.0 mi ENE 11.5 mph - N/A   Scattered Clouds
5:44 PM 77.0 °F 60.8 °F 57% 3.03 in 7.0 mi NE 12.7 mph - N/A   Scattered Clouds
6:45 PM 75.2 °F 60.8 °F 61% 30.04 in 7.0 mi NE 5.8 mph - N/A   Scattered Clouds
7:42 PM 73.4 °F 60.8 °F 65% 30.04 in 7.0 mi Calm Calm - N/A   Mostly Cloudy
8:42 PM 73.4 °F 60.8 °F 65% 30.05 in 7.0 mi ENE 4.6 mph - N/A   Scattered Clouds
9:48 PM 73.4 °F 60.8 °F 65% 30.07 in 7.0 mi NE 5.8 mph - N/A   Scattered Clouds
10:47 PM 73.4 °F 60.8 °F 65% 30.07 in 7.0 mi NE 5.8 mph - N/A   Scattered Clouds
11:46 PM 71.6 °F 60.8 °F 69% 30.07 in 7.0 mi ENE 5.8 mph - N/A   Partly Cloudy